Regional Weather Roundup
Issued by NWS State College, PA

Home | Current Version | Previous Version | Text Only | Print | Product List | Glossary On
Versions: 1 2 3 4 5 6 7 8 9 10 11 12 13 14 15 16 17 18 19 20 21 22 23 24 25 26 27 28 29 30 31 32 33 34 35 36 37 38 39 40 41 42 43 44 45 46 47 48 49 50
000
ASUS41 KCTP 010410
RWRCTP

REGIONAL WEATHER ROUNDUP
NATIONAL WEATHER SERVICE STATE COLLEGE PA
1100 PM EST SAT JAN 31 2015

Note: "fair" indicates few or no clouds below 12,000 feet with no
significant weather and/or obstructions to visibility.

* = STATION THAT DOES NOT REPORT PRECIPITATION /E.G. RAIN...SNOW...ETC/
    THUNDER OR FOG.

PAZ002>004-007>009-013>016-020>023-029>032-010500-
WESTERN PENNSYLVANIA

CITY           SKY/WX    TMP DP  RH WIND       PRES   REMARKS
ERIE           CLOUDY    28  17  63 SW10      30.19S
MEADVILLE      CLOUDY    25  15  66 SW6       30.16S
FRANKLIN*      CLOUDY    21  12  68 SW6       30.18S WCI  14
NEW CASTLE     CLOUDY    26  17  68 CALM      30.21F
BEAVER COUNTY  NOT AVBL
BUTLER*        CLOUDY    25  16  68 S6        30.21S
PITTSBURGH INT CLOUDY    28  17  63 SW9       30.20F
PITTSBURGH     CLOUDY    26  14  60 SW10      30.20S
INDIANA*       CLOUDY    12  10  92 CALM      30.23S
LATROBE        CLOUDY    25  16  68 S8        30.23F
WASHINGTON CO* PTCLDY    25  16  68 SW7       30.23S
$$

PAZ004>006-010>012-017>019-024>028-033>037-041-042-045-046-049>053-010500-
CENTRAL PENNSYLVANIA

CITY           SKY/WX    TMP DP  RH WIND       PRES   REMARKS
BRADFORD       CLOUDY    19  12  74 W5        30.10S WCI  12
DUBOIS         CLOUDY    17  11  77 SW8       30.13F WCI   7
CLEARFIELD     PTCLDY    13   9  84 SW5       30.16F WCI   5
JOHNSTOWN      CLOUDY    21  11  65 W16       30.11S WCI   7
ALTOONA        CLEAR     18   8  65 S8        30.17F WCI   8
STATE COLLEGE  PTCLDY    20  12  69 SW8       30.18S WCI  10
WILLIAMSPORT   PTCLDY    15   6  67 CALM      30.21S
SELINSGROVE    PTCLDY     8   3  80 CALM      30.23S
FT INDIANTOWN  PTCLDY    22   8  54 S3        30.22S
CAPITAL CITY   CLEAR     16   7  67 CALM      30.24S
HARRISBURG     CLEAR     11   6  81 CALM      30.24S
YORK           CLEAR      7   3  84 CALM      30.23S
$$

PAZ038>040-043-044-047-048-054-055-060>062-067>071-010500-
EASTERN PENNSYLVANIA

CITY           SKY/WX    TMP DP  RH WIND       PRES   REMARKS
SCRANTON       PTCLDY     9   1  70 MISG      30.16S
MOUNT POCONO   PTCLDY    10   2  69 NW7       30.06F WCI  -1
ALLENTOWN      CLEAR     16   5  62 SW3       30.20S
QUAKERTOWN*    CLEAR     19   7  58 W3        30.21R
READING        CLEAR     20   6  55 CALM      30.22S
LANCASTER      CLEAR     19   5  54 CALM      30.23S
COATESVILLE    CLEAR     23   9  54 W5        30.22R
POTTSTOWN      CLEAR     17   6  62 CALM      30.23S
BLUE BELL      CLEAR     23  10  58 CALM      30.22S
DOYLESTOWN     CLEAR     17   7  64 SW3       30.21R
WILLOW GROVE   NOT AVBL
NORTH PHILA    CLEAR     24   6  46 W7        30.25S
PHILADELPHIA   CLEAR     22   8  55 W9        30.26S WCI  12
$$


USA.gov is the U.S. government's official web portal to all federal, state and local government web resources and services.